EW2895 Weather Reports


time (UTC)temp
C
wind
direction
speed
KPH
gust
KPH
rain 1hr
cm
rain 24hr
cm
rain mn
cm
humidity
%
barometer
mb
20260905205122 32 281 0.0 3.2 0.00 0.00 0.00 55 1007.9
20260905204615 32 281 0.0 9.7 0.00 0.00 0.00 56 1007.9
20260905204105 32 281 0.0 9.7 0.00 0.00 0.00 54 1007.8
20260905203603 32 327 0.0 3.2 0.00 0.00 0.00 53 1007.8
20260905203047 32 327 0.0 11.3 0.00 0.00 0.00 52 1008.1
20260905202542 32 350 1.6 11.3 0.00 0.00 0.00 53 1008.1
20260905202530 32 326 0.0 8.0 0.00 0.00 0.00 52 1008.1
20260905201529 32 326 0.0 4.8 0.00 0.00 0.00 52 1008.2
20260905201021 32 326 0.0 4.8 0.00 0.00 0.00 52 1008.2
20260905200516 32 347 0.0 1.6 0.00 0.00 0.00 51 1008.2
20260905200006 32 347 0.0 1.6 0.00 0.00 0.00 54 1008.2
20260905195457 32 347 0.0 1.6 0.00 0.00 0.00 51 1008.2
20260905194947 32 347 0.0 6.4 0.00 0.00 0.00 51 1008.2
20260905194443 32 347 0.0 6.4 0.00 0.00 0.00 51 1008.3
20260905193936 32 347 1.6 12.9 0.00 0.00 0.00 51 1008.3
20260905193429 32 347 1.6 12.9 0.00 0.00 0.00 51 1008.3
20260905192919 32 219 0.0 1.6 0.00 0.00 0.00 54 1008.4
20260905192854 32 161 0.0 6.4 0.00 0.00 0.00 51 1008.4
20260905191851 32 252 0.0 9.7 0.00 0.00 0.00 51 1008.4
20260905191351 32 220 0.0 9.7 0.00 0.00 0.00 49 1008.7
20260905190848 32 158 0.0 1.6 0.00 0.00 0.00 51 1008.7
20260905190346 32 153 0.0 6.4 0.00 0.00 0.00 51 1008.7
20260905185845 32 241 1.6 9.7 0.00 0.00 0.00 49 1008.8
20260905185350 32 358 0.0 8.0 0.00 0.00 0.00 51 1008.8
20260905185346 32 254 1.6 9.7 0.00 0.00 0.00 48 1008.8
20260905184832 32 272 0.0 8.0 0.00 0.00 0.00 53 1009.2
20260905183831 32 276 1.6 9.7 0.00 0.00 0.00 51 1009.2
20260905183329 32 276 1.6 11.3 0.00 0.00 0.00 49 1009.2
20260905182829 32 233 0.0 11.3 0.00 0.00 0.00 51 1009.3
20260905182327 31 299 0.0 6.4 0.00 0.00 0.00 50 1009.3
20260905181827 31 296 0.0 6.4 0.00 0.00 0.00 50 1009.3
20260905181311 31 296 0.0 8.0 0.00 0.00 0.00 52 1009.4
20260905180759 31 296 0.0 8.0 0.00 0.00 0.00 53 1009.4
20260905180255 31 326 0.0 9.7 0.00 0.00 0.00 53 1009.4
20260905175749 31 279 0.0 9.7 0.00 0.00 0.00 51 1009.6
20260905175745 31 326 1.6 9.7 0.00 0.00 0.00 51 1009.6
20260905174733 31 318 0.0 1.6 0.00 0.00 0.00 54 1009.6
20260905174231 30 318 0.0 12.9 0.00 0.00 0.00 54 1009.8
20260905173718 30 318 0.0 12.9 0.00 0.00 0.00 52 1009.8
20260905173213 30 231 0.0 1.6 0.00 0.00 0.00 52 1009.8
20260905172705 30 231 0.0 1.6 0.00 0.00 0.00 54 1010.0
20260905172155 30 231 0.0 4.8 0.00 0.00 0.00 54 1010.0
20260905171649 30 231 0.0 4.8 0.00 0.00 0.00 54 1010.0
20260905171146 30 227 0.0 1.6 0.00 0.00 0.00 55 1010.2
20260905170637 30 227 0.0 1.6 0.00 0.00 0.00 55 1010.2
20260905170133 29 227 0.0 1.6 0.00 0.00 0.00 53 1010.2
20260905165627 29 227 0.0 1.6 0.00 0.00 0.00 53 1010.4
20260905165119 29 227 0.0 9.7 0.00 0.00 0.00 55 1010.4
20260905164617 29 108 0.0 9.7 0.00 0.00 0.00 52 1010.4
20260905164601 29 111 0.0 11.3 0.00 0.00 0.00 55 1010.6
20260905163601 29 111 0.0 11.3 0.00 0.00 0.00 54 1010.6
20260905163049 29 104 0.0 1.6 0.00 0.00 0.00 55 1010.6
20260905162549 29 104 0.0 1.6 0.00 0.00 0.00 57 1010.6
20260905162027 29 104 0.0 1.6 0.00 0.00 0.00 56 1010.6
20260905161525 28 104 0.0 1.6 0.00 0.00 0.00 57 1010.6
20260905161521 28 104 0.0 1.6 0.00 0.00 0.00 57 1010.6
20260905160513 28 104 0.0 1.6 0.00 0.00 0.00 57 1010.6
20260905160011 28 104 0.0 1.6 0.00 0.00 0.00 59 1010.6
20260905155501 27 104 0.0 6.4 0.00 0.00 0.00 58 1010.6
20260905155457 27 104 0.0 1.6 0.00 0.00 0.00 57 1010.6
20260905154443 27 104 0.0 6.4 0.00 0.00 0.00 60 1010.7
20260905153926 27 312 0.0 1.6 0.00 0.00 0.00 60 1010.7
20260905153427 27 312 0.0 1.6 0.00 0.00 0.00 62 1010.7
20260905152901 27 312 0.0 1.6 0.00 0.00 0.00 61 1010.9
20260905152356 27 312 0.0 1.6 0.00 0.00 0.00 60 1010.9
20260905151854 27 123 0.0 1.6 0.00 0.00 0.00 61 1010.9
20260905151355 27 123 0.0 1.6 0.00 0.00 0.00 62 1010.8
20260905150839 27 123 0.0 1.6 0.00 0.00 0.00 61 1010.8
20260905150337 27 123 0.0 4.8 0.00 0.00 0.00 61 1010.8
20260905145836 27 123 0.0 8.0 0.00 0.00 0.00 61 1010.9
20260905145319 26 121 0.0 8.0 0.00 0.00 0.00 62 1010.9
20260905145311 26 287 0.0 6.4 0.00 0.00 0.00 63 1011.0
20260905144914 26 287 0.0 4.8 0.00 0.00 0.00 63 1010.9
20260905143754 26 36 0.0 6.4 0.00 0.00 0.00 62 1011.0
20260905143748 26 36 0.0 6.4 0.00 0.00 0.00 62 1011.0
20260905142746 26 217 0.0 3.2 0.00 0.00 0.00 64 1011.2
20260905142739 26 217 0.0 3.2 0.00 0.00 0.00 64 1011.2
20260905141731 25 52 0.0 3.2 0.00 0.00 0.00 64 1011.2
20260905141227 25 106 0.0 9.7 0.00 0.00 0.00 65 1011.3
20260905140716 25 108 0.0 14.5 0.00 0.00 0.00 66 1011.3
20260905140216 25 108 1.6 14.5 0.00 0.00 0.00 66 1011.3
20260905140158 24 211 1.6 9.7 0.00 0.00 0.00 68 1011.3
20260905135157 24 110 0.0 9.7 0.00 0.00 0.00 67 1011.3
20260905134655 24 105 0.0 6.4 0.00 0.00 0.00 69 1011.3
20260905134647 23 270 0.0 6.4 0.00 0.00 0.00 71 1011.3
20260905133637 23 106 0.0 6.4 0.00 0.00 0.00 71 1011.3
20260905133623 23 105 0.0 3.2 0.00 0.00 0.00 72 1011.3
20260905132618 23 105 0.0 3.2 0.00 0.00 0.00 72 1011.5
20260905132105 23 105 0.0 9.7 0.00 0.00 0.00 72 1011.5
20260905131544 23 82 0.0 8.0 0.00 0.00 0.00 72 1011.5
20260905131045 23 87 1.6 9.7 0.00 0.00 0.00 73 1011.5
20260905130544 22 81 1.6 9.7 0.00 0.00 0.00 73 1011.5
20260905130042 22 105 0.0 8.0 0.00 0.00 0.00 74 1011.4
20260905125535 22 101 0.0 9.7 0.00 0.00 0.00 74 1011.4
20260905125034 22 101 0.0 9.7 0.00 0.00 0.00 75 1011.4
20260905124535 22 101 0.0 8.0 0.00 0.00 0.00 75 1011.3
20260905124035 22 110 0.0 6.4 0.00 0.00 0.00 75 1011.3
20260905123534 22 112 0.0 6.4 0.00 0.00 0.00 76 1011.3
20260905123034 22 120 0.0 3.2 0.00 0.00 0.00 76 1011.3
20260905122525 22 120 0.0 3.2 0.00 0.00 0.00 76 1011.3
20260905122025 22 36 0.0 1.6 0.00 0.00 0.00 77 1011.3
20260905121520 22 36 0.0 3.2 0.00 0.00 0.00 77 1011.2
20260905121010 22 36 0.0 8.0 0.00 0.00 0.00 78 1011.2
20260905120510 22 33 0.0 8.0 0.00 0.00 0.00 78 1011.2
20260905115936 22 314 0.0 0.0 0.00 0.00 0.00 77 1011.2
20260905115427 22 314 0.0 9.7 0.00 0.00 0.00 77 1011.2
20260905114914 22 314 1.6 12.9 0.00 0.00 0.00 77 1011.2
20260905114400 22 45 0.0 12.9 0.00 0.00 0.00 77 1010.8
20260905113905 22 33 0.0 9.7 0.00 0.00 0.00 78 1010.8
20260905113901 22 33 0.0 9.7 0.00 0.00 0.00 78 1010.8
20260905112855 22 37 0.0 16.1 0.00 0.00 0.00 79 1010.6
20260905112851 22 38 0.0 16.1 0.00 0.00 0.00 78 1010.6
20260905111847 22 52 1.6 12.9 0.00 0.00 0.00 79 1010.6
20260905111327 22 39 1.6 9.7 0.00 0.00 0.00 81 1010.5
20260905110744 22 38 1.6 24.1 0.00 0.00 0.00 84 1010.5
20260905110236 23 51 1.6 24.1 0.00 0.00 0.00 87 1010.5
20260905105730 23 68 1.6 12.9 0.00 0.00 0.00 91 1009.9
20260905105230 23 33 1.6 14.5 0.00 0.00 0.00 92 1009.9
20260905104654 23 35 1.6 14.5 0.00 0.00 0.00 92 1009.9
20260905104151 23 231 0.0 0.0 0.00 0.00 0.00 92 1009.2
20260905103644 23 231 0.0 0.0 0.00 0.00 0.00 92 1009.2
20260905103140 23 231 0.0 0.0 0.00 0.00 0.00 92 1009.2
20260905102617 23 231 0.0 0.0 0.00 0.00 0.00 92 1009.2
20260905102116 23 231 0.0 0.0 0.00 0.00 0.00 92 1009.2
20260905101557 23 231 0.0 0.0 0.00 0.00 0.00 92 1009.2
20260905101551 23 231 0.0 0.0 0.00 0.00 0.00 92 1009.1
20260905100541 23 231 0.0 0.0 0.00 0.00 0.00 91 1009.1
20260905100026 23 231 0.0 0.0 0.00 0.00 0.00 92 1009.1
20260905095458 23 231 0.0 0.0 0.00 0.00 0.00 91 1009.1
20260905094958 23 231 0.0 0.0 0.00 0.00 0.00 91 1009.1
20260905094444 23 231 0.0 0.0 0.00 0.00 0.00 91 1009.1
20260905093945 23 231 0.0 0.0 0.00 0.00 0.00 91 1009.1
20260905093940 23 231 0.0 0.0 0.00 0.00 0.00 91 1009.1
20260905093358 23 231 0.0 0.0 0.00 0.00 0.00 91 1009.1
20260905093336 23 231 0.0 0.0 0.00 0.00 0.00 91 1009.1
20260905091835 23 231 0.0 0.0 0.00 0.00 0.00 91 1009.1
20260905091323 24 231 0.0 0.0 0.00 0.00 0.00 91 1008.8
20260905091258 24 231 0.0 0.0 0.00 0.00 0.00 91 1008.8
20260905090903 24 231 0.0 0.0 0.00 0.00 0.00 91 1008.8
20260905085756 24 231 0.0 0.0 0.00 0.00 0.00 91 1008.9
20260905085255 24 231 0.0 0.0 0.00 0.00 0.00 91 1008.9
20260905084748 24 231 0.0 0.0 0.00 0.00 0.00 91 1008.9
20260905084246 24 231 0.0 0.0 0.00 0.00 0.00 91 1009.0
20260905083727 24 231 0.0 0.0 0.00 0.00 0.00 90 1009.0
20260905083216 24 231 0.0 0.0 0.00 0.00 0.00 90 1009.0
20260905082716 24 231 0.0 0.0 0.00 0.00 0.00 90 1008.9
20260905082204 24 231 0.0 0.0 0.00 0.00 0.00 90 1008.9
20260905081654 24 231 0.0 0.0 0.00 0.00 0.00 90 1008.9
20260905081159 24 231 0.0 0.0 0.00 0.00 0.00 90 1008.6
20260905081154 24 231 0.0 0.0 0.00 0.00 0.00 90 1008.6
20260905080152 24 231 0.0 0.0 0.00 0.00 0.00 90 1008.6
20260905075640 24 231 0.0 0.0 0.00 0.00 0.00 90 1008.3
20260905075056 24 231 0.0 0.0 0.00 0.00 0.00 90 1008.3
20260905074556 24 231 0.0 0.0 0.00 0.00 0.00 90 1008.3
20260905074542 24 231 0.0 0.0 0.00 0.00 0.00 90 1008.1
20260905074146 24 231 0.0 0.0 0.00 0.00 0.00 90 1008.1
20260905073015 24 231 0.0 0.0 0.00 0.00 0.00 90 1008.3
20260905072516 24 231 0.0 0.0 0.00 0.00 0.00 90 1008.3
20260905071952 24 231 0.0 0.0 0.00 0.00 0.00 90 1008.4
20260905071947 24 231 0.0 0.0 0.00 0.00 0.00 90 1008.3
20260905071550 24 231 0.0 0.0 0.00 0.00 0.00 90 1008.4
20260905070420 24 231 0.0 0.0 0.00 0.00 0.00 89 1008.4
20260905065905 24 231 0.0 0.0 0.00 0.00 0.00 89 1008.6
20260905065400 24 231 0.0 0.0 0.00 0.00 0.00 89 1008.6
20260905064843 24 231 0.0 0.0 0.00 0.00 0.00 89 1008.6
20260905064838 24 231 0.0 0.0 0.00 0.00 0.00 88 1008.7
20260905063746 24 231 0.0 0.0 0.00 0.00 0.00 88 1008.7
20260905063218 24 231 0.0 0.0 0.00 0.00 0.00 88 1008.7
20260905062654 24 231 0.0 0.0 0.00 0.00 0.00 88 1009.1
20260905062153 24 231 0.0 0.0 0.00 0.00 0.00 88 1009.1
20260905061655 24 231 0.0 0.0 0.00 0.00 0.00 87 1009.1
20260905061159 25 231 0.0 0.0 0.00 0.00 0.00 87 1009.2
20260905061154 25 231 0.0 0.0 0.00 0.00 0.00 87 1009.2
20260905060152 25 231 0.0 0.0 0.00 0.00 0.00 87 1009.2
20260905055634 25 231 0.0 0.0 0.00 0.00 0.00 86 1009.3
20260905055130 25 231 0.0 0.0 0.00 0.00 0.00 86 1009.3
20260905054557 25 231 0.0 0.0 0.00 0.00 0.00 86 1009.3
20260905054054 25 231 0.0 0.0 0.00 0.00 0.00 86 1009.6
20260905054050 25 231 0.0 0.0 0.00 0.00 0.00 86 1009.6
20260905053029 25 231 0.0 0.0 0.00 0.00 0.00 86 1009.7
20260905052451 25 231 0.0 0.0 0.00 0.00 0.00 86 1009.7
20260905051947 25 231 0.0 0.0 0.00 0.00 0.00 86 1009.7
20260905051932 25 231 0.0 0.0 0.00 0.00 0.00 85 1009.7
20260905050849 25 231 0.0 0.0 0.00 0.00 0.00 85 1009.7
20260905050347 25 231 0.0 0.0 0.00 0.00 0.00 85 1009.7
20260905050338 25 231 0.0 0.0 0.00 0.00 0.00 85 1009.6
20260905045331 25 231 0.0 0.0 0.00 0.00 0.00 85 1009.6
20260905044822 25 231 0.0 0.0 0.00 0.00 0.00 85 1009.6
20260905044321 25 231 0.0 0.0 0.00 0.00 0.00 85 1009.7
20260905043823 25 231 0.0 0.0 0.00 0.00 0.00 84 1009.7
20260905043317 25 231 0.0 0.0 0.00 0.00 0.00 84 1009.7
20260905042814 25 231 0.0 0.0 0.00 0.00 0.00 83 1009.7
20260905042758 25 231 0.0 0.0 0.00 0.00 0.00 83 1009.7
20260905041746 25 231 0.0 0.0 0.00 0.00 0.00 83 1009.7
20260905041245 26 231 0.0 0.0 0.00 0.00 0.00 83 1009.8
20260905040741 26 231 0.0 0.0 0.00 0.00 0.00 83 1009.8
20260905040241 26 231 0.0 0.0 0.00 0.00 0.00 82 1009.8
20260905035736 26 231 0.0 0.0 0.00 0.00 0.00 82 1009.8
20260905035207 26 231 0.0 0.0 0.00 0.00 0.00 82 1009.8
20260905034654 26 231 0.0 0.0 0.00 0.00 0.00 81 1009.8
20260905034150 26 231 0.0 0.0 0.00 0.00 0.00 81 1009.9
20260905033611 26 231 0.0 0.0 0.00 0.00 0.00 81 1009.9
20260905033052 26 231 0.0 0.0 0.00 0.00 0.00 81 1009.9
20260905032541 26 231 0.0 0.0 0.00 0.00 0.00 80 1009.9
20260905032042 26 231 0.0 0.0 0.00 0.00 0.00 80 1009.9
20260905031526 26 231 0.0 0.0 0.00 0.00 0.00 79 1009.9
20260905031520 26 231 0.0 0.0 0.00 0.00 0.00 79 1009.9
20260905030508 26 231 0.0 0.0 0.00 0.00 0.00 79 1009.8
20260905030504 26 231 0.0 0.0 0.00 0.00 0.00 79 1009.9
20260905025452 26 231 0.0 0.0 0.00 0.00 0.00 78 1009.8
20260905024946 26 231 0.0 0.0 0.00 0.00 0.00 77 1009.8
20260905024939 26 231 0.0 0.0 0.00 0.00 0.00 77 1009.7
20260905023935 27 231 0.0 0.0 0.00 0.00 0.00 77 1009.7
20260905023424 27 231 0.0 0.0 0.00 0.00 0.00 76 1009.7
20260905022857 27 231 0.0 0.0 0.00 0.00 0.00 76 1009.7
20260905022349 27 231 0.0 0.0 0.00 0.00 0.00 76 1009.7
20260905021840 27 231 0.0 0.0 0.00 0.00 0.00 75 1009.7
20260905021344 27 231 0.0 0.0 0.00 0.00 0.00 74 1009.8
20260905021340 27 231 0.0 0.0 0.00 0.00 0.00 74 1009.8
20260905020336 27 231 0.0 0.0 0.00 0.00 0.00 73 1009.8
20260905015835 27 231 0.0 0.0 0.00 0.00 0.00 73 1009.7
20260905015331 27 231 0.0 0.0 0.00 0.00 0.00 72 1009.7
20260905014826 27 231 0.0 0.0 0.00 0.00 0.00 71 1009.7
20260905014319 28 231 0.0 0.0 0.00 0.00 0.00 71 1009.7
20260905013808 28 231 0.0 0.0 0.00 0.00 0.00 71 1009.7
20260905013254 28 231 0.0 0.0 0.00 0.00 0.00 70 1009.7
20260905012741 28 231 0.0 0.0 0.00 0.00 0.00 70 1009.3
20260905012231 28 231 0.0 0.0 0.00 0.00 0.00 69 1009.3
20260905011715 28 231 0.0 0.0 0.00 0.00 0.00 68 1009.3
20260905011653 28 231 0.0 0.0 0.00 0.00 0.00 66 1009.5
20260905011258 28 231 0.0 0.0 0.00 0.00 0.00 68 1009.5
20260905010147 29 231 0.0 0.0 0.00 0.00 0.00 66 1009.5
20260905010051 30 231 0.0 0.0 0.00 0.00 0.00 63 1009.3
20260905005654 29 231 0.0 0.0 0.00 0.00 0.00 65 1009.4
20260905005154 29 231 0.0 0.0 0.00 0.00 0.00 65 1009.4
20260905004652 29 231 0.0 0.0 0.00 0.00 0.00 64 1009.3
20260905003537 30 231 0.0 0.0 0.00 0.00 0.00 62 1009.3
20260905003018 30 231 0.0 0.0 0.00 0.00 0.00 62 1009.4
20260905002509 30 231 0.0 0.0 0.00 0.00 0.00 61 1009.4
20260905001957 31 231 0.0 0.0 0.00 0.00 0.00 60 1009.4
20260905001952 31 231 0.0 0.0 0.00 0.00 0.00 59 1009.3
20260905001556 31 231 0.0 0.0 0.00 0.00 0.00 58 1009.3
20260905001056 31 231 0.0 0.0 0.00 0.00 0.00 58 1009.3
20260904235940 31 231 0.0 0.0 0.00 0.00 0.00 57 1009.4
20260904235935 31 231 0.0 1.6 0.00 0.00 0.00 56 1009.4
20260904234924 32 231 0.0 0.0 0.00 0.00 0.00 55 1009.3
20260904234919 31 231 0.0 1.6 0.00 0.00 0.00 56 1009.4
20260904233839 32 231 0.0 0.0 0.00 0.00 0.00 54 1009.3
20260904233327 32 231 0.0 0.0 0.00 0.00 0.00 53 1009.3
20260904232824 32 231 0.0 1.6 0.00 0.00 0.00 52 1009.3
20260904232811 32 231 0.0 1.6 0.00 0.00 0.00 51 1009.3
20260904231805 33 231 0.0 0.0 0.00 0.00 0.00 51 1009.3
20260904231302 33 231 0.0 1.6 0.00 0.00 0.00 50 1009.2
20260904230801 33 231 0.0 3.2 0.00 0.00 0.00 50 1009.2
20260904230246 33 231 0.0 3.2 0.00 0.00 0.00 49 1009.2
20260904225733 33 231 0.0 1.6 0.00 0.00 0.00 48 1009.2
20260904225728 34 231 0.0 3.2 0.00 0.00 0.00 48 1009.2
20260904225332 33 231 0.0 3.2 0.00 0.00 0.00 48 1009.2
20260904224207 34 229 0.0 3.2 0.00 0.00 0.00 48 1009.1
20260904223651 34 229 0.0 1.6 0.00 0.00 0.00 47 1009.1
20260904223145 34 229 0.0 8.0 0.00 0.00 0.00 46 1009.1
20260904223132 35 306 0.0 6.4 0.00 0.00 0.00 47 1008.9
20260904222735 35 227 1.6 8.0 0.00 0.00 0.00 45 1008.9
20260904221623 35 262 0.0 4.8 0.00 0.00 0.00 46 1008.9
20260904221114 35 266 0.0 3.2 0.00 0.00 0.00 44 1008.9
20260904220613 35 266 0.0 1.6 0.00 0.00 0.00 44 1008.9
20260904220048 35 252 0.0 1.6 0.00 0.00 0.00 45 1008.7
20260904215535 35 252 0.0 8.0 0.00 0.00 0.00 44 1008.7
20260904215031 36 251 0.0 11.3 0.00 0.00 0.00 42 1008.7
20260904214535 36 226 0.0 3.2 0.00 0.00 0.00 43 1008.7
20260904214531 36 222 0.0 11.3 0.00 0.00 0.00 42 1008.7
20260904214135 36 226 0.0 3.2 0.00 0.00 0.00 40 1008.7
20260904213029 36 218 0.0 6.4 0.00 0.00 0.00 41 1008.8
20260904212523 36 193 0.0 6.4 0.00 0.00 0.00 41 1008.8
20260904212023 36 330 0.0 14.5 0.00 0.00 0.00 39 1008.8
20260904211522 36 334 0.0 14.5 0.00 0.00 0.00 38 1009.1
20260904211023 36 180 1.6 12.9 0.00 0.00 0.00 38 1009.1
20260904210522 36 326 1.6 12.9 0.00 0.00 0.00 41 1009.1
20260904210025 36 305 0.0 9.7 0.00 0.00 0.00 40 1009.2
20260904210021 36 193 0.0 9.7 0.00 0.00 0.00 42 1009.2